Terug naar catalogus

COSMOS 1275 DEB

ActiefPO
NORAD 42154·DEBRIS·🇷🇺 Russia

Gelanceerd Jun 4, 1981 vanaf Plesetsk Cosmodrome

Loading…

Volgende Passages (komende 24 uur)

TLE

VerouderendSource: Space-Track

Epoch: Sep 7, 2026, 17:59 UTC

1 42154U 81053RS  26250.74969044  .00000308  00000-0  32061-3 0  9997
2 42154  82.8047 251.9769 0130173  87.5795  34.4522 13.68738617582872

Volg COSMOS 1275 DEB in realtime met AllMySat

Download on the App Store